Vertical_Velocity
-1 -1 1 1 1 -0 1 3 -0 -1 -2 0 2 1 3 -4 0 -2 1 2 4 -3 -3 -1 -2 -1 -0 -3 -1 -0 1 -2 -3 -5 -3 -4 -5 -2 -1 -5 -3 4 -2 2 -0 2 1
-2 0 -1 0 -0 2 0 2 -1 -1 -1 -2 4 2 2 0 3 -1 -1 8 -2 2 -3 -2 -2 3 -1 -1 -1 -1 -1 -1 -2 -5 1 -3 -3 -1 -3 -2 2 -2 0 -0 2 -1 -5
-2 -2 -0 -1 0 2 1 1 2 2 -1 1 -2 0 2 0 2 2 -2 2 1 3 1 -4 -0 1 1 -2 -2 0 -3 2 -2 -1 -6 4 -0 -0 -1 -5 5 -1 -8 2 1 0 -2
-3 -3 -2 1 -1 0 3 2 0 -1 10 13 -2 -2 2 3 2 5 1 -3 4 1 -1 1 1 -5 2 -0 -3 1 -2 1 -2 2 -1 -2 -2 2 -0 0 -2 -3 4 -4 -1 1 1
-4 -3 -4 -1 -1 -1 2 3 1 -1 3 -3 0 0 0 2 4 5 1 8 -2 1 2 5 1 -1 -3 0 -1 -0 -2 -1 0 1 -2 -2 2 4 -1 -0 -4 1 -0 1 -4 -2 2
-5 -4 -2 -1 -1 -2 -0 1 4 1 1 -3 -3 1 -0 -0 6 4 5 1 4 1 1 5 0 -2 1 0 -5 -3 1 0 -0 -1 1 -2 -0 -0 2 -2 -7 -7 -3 4 2 -0 1
-1 -1 -4 -2 -1 -3 -1 0 1 2 -0 -3 33 -1 -2 1 5 3 3 0 4 -4 -6 5 1 -1 -2 2 -5 -0 -2 1 -0 3 1 4 -2 -3 -2 -4 0 4 0 -0 0 0 -2
-1 0 -2 -2 -3 0 -1 2 0 3 2 6 -4 19 0 2 1 4 -1 -3 6 -4 0 4 -1 2 -10 4 -2 -0 -3 -2 1 2 2 -0 1 -2 0 1 1 4 1 1 1 0 -0
1 -0 -2 -1 -2 0 -1 0 -0 2 3 -1 4 1 5 2 -2 -8 4 3 8 4 6 2 2 0 -2 8 -3 -2 -2 -1 -0 1 1 0 0 1 -0 -1 -3 2 -2 -2 -1 -2 2
1 -0 -1 -1 -3 -0 2 2 -1 1 4 0 1 22 7 4 -6 3 -1 1 9 6 4 -1 -10 -1 -8 -19 3 -2 -2 -0 -2 1 2 1 3 2 -1 1 2 -5 -1 1 -3 -0 -1
0 -1 -0 0 -1 1 2 3 0 -0 2 2 4 4 -3 34 5 -18 22 3 10 6 -1 2 4 -2 -2 2 0 -3 -2 2 3 -0 0 0 4 3 4 2 -1 -3 1 2 3 1 0
0 1 -0 1 1 1 -0 1 2 0 0 3 4 0 4 34 5 25 3 6 6 5 -15 -0 0 -6 1 -3 6 -3 -2 -0 -1 2 1 1 1 1 -3 0 -1 2 -1 1 2 1 -0
4 4 1 1 3 -0 -0 1 3 -4 -3 1 -4 1 13 -3 6 24 16 9 8 2 2 -4 -9 -6 7 -2 6 1 -3 -2 -6 -4 -0 1 -2 0 -1 3 2 1 1 -1 -5 -3 -8
3 3 2 0 2 1 2 2 2 2 0 -2 0 2 -2 7 32 -5 21 11 1 -3 2 -1 -6 9 -1 5 5 -1 1 -1 -0 1 -2 -3 2 -1 3 1 -1 2 -0 -2 -6 -2 -2
0 0 -1 1 1 2 1 0 1 0 0 -2 -3 -4 25 14 32 16 14 11 -17 -4 -1 -0 1 9 3 3 1 -0 1 3 0 0 -0 -4 -0 1 3 3 -0 -2 -0 1 -2 0 -2
1 2 1 1 -0 0 2 3 1 -1 0 -3 -2 -5 3 7 32 30 1 -1 -3 3 3 5 -2 2 -7 -3 -4 -1 -4 3 -1 0 1 -0 -4 -1 -1 1 1 -0 -0 -2 -1 -5 -2
1 2 2 1 1 2 2 3 2 -0 1 -3 1 2 5 20 10 34 -30 15 -7 7 4 4 0 -4 3 -13 2 -2 6 -2 2 0 -1 -0 -1 0 3 -1 -2 -1 -3 -2 -2 -1 -5
1 1 0 0 1 2 2 1 0 0 2 1 1 1 3 20 10 0 9 -10 -3 7 -0 9 1 1 7 0 -2 -0 -5 -2 3 4 -2 -2 -2 -2 -2 -1 -0 -0 -1 -0 -1 -2 -1
2 1 0 1 1 1 3 2 1 1 -2 3 1 3 0 38 -23 1 2 -0 -19 8 -2 6 4 2 2 -3 0 -2 1 0 1 -0 -3 -5 2 -3 -0 -1 -3 -2 -2 -2 0 1 -3
-0 1 -1 1 1 1 1 1 2 3 0 4 0 4 -9 26 -8 11 -6 3 -11 6 1 1 3 1 5 3 0 -5 0 -2 0 1 -0 2 1 -2 -8 0 0 -7 -2 -0 3 -1 -1
-2 -3 -1 0 -1 -0 0 3 3 3 0 6 0 -7 -6 3 -18 11 4 -1 -15 -7 -0 7 5 2 -3 -4 -1 -4 0 1 -0 -0 0 0 -0 2 -1 -0 -2 -2 1 -0 -6 0 -4
-1 -2 -3 -2 0 -0 1 3 2 1 4 4 0 -2 -17 8 2 13 13 -14 -12 -11 4 7 2 2 -4 -2 -3 -7 -1 -4 -3 -2 -1 -1 -1 1 -0 -2 -3 -2 1 2 1 -0 -5
-1 -3 -4 -2 -0 1 2 0 1 2 7 0 2 3 7 7 14 5 -40 1 0 20 -7 0 -2 4 -3 8 9 -1 8 6 4 3 0 -0 -1 -2 -2 -2 2 -6 -5 -0 3 -2 5
-2 -1 -1 -3 -1 -0 0 1 2 4 5 5 1 3 -0 -8 -28 -3 -4 2 -6 -13 -6 5 -6 0 6 3 -3 2 -0 -1 2 2 2 -1 0 1 -0 1 -5 1 1 0 -1 -3 -4
-2 -3 -2 -4 -2 0 1 -0 0 3 3 0 -7 -1 -2 -20 32 8 3 -8 -12 9 1 9 2 -1 1 3 3 2 0 1 -3 1 0 1 3 -1 0 -3 -4 2 -5 -3 -2 -5 -4
1 -0 -1 -1 -2 -0 1 -0 -1 2 2 3 -2 3 1 2 -46 25 -7 -7 -2 -15 -3 7 11 7 0 9 2 -2 -4 -2 -0 1 -2 1 5 2 1 0 -3 0 0 -2 -2 -17 -3
-1 -1 -2 -0 1 -0 -1 -1 1 -2 -1 -2 -4 0 -1 -3 1 7 -14 -36 9 -8 -18 -13 8 9 5 -1 -3 -2 -1 -1 -3 -4 -6 1 5 -0 -1 -1 -5 0 -2 -3 -0 -2 -1
-1 -2 -1 1 2 -1 -0 -1 -2 -0 3 -6 9 6 3 1 14 2 -6 -1 -2 2 -27 0 19 10 4 4 5 -3 -2 1 -1 0 -6 -2 -7 -4 1 -1 -18 -2 -3 -9 0 -2 -1
-5 -3 -1 1 -1 -1 1 0 0 -4 -5 -8 -7 7 5 -12 10 -10 -14 -8 11 11 -36 -0 18 -20 -24 -12 -5 -0 -3 -2 -1 -5 -2 -13 -12 -7 -10 -2 -4 -4 -2 4 -2 -0 -2
Height
3103 3103 3105 3107 3110 3113 3117 3120 3125 3130 3134 3139 3144 3148 3153 3157 3160 3164 3164 3166 3165 3168 3171 3172 3173 3173 3174 3175 3175 3175 3174 3172 3170 3168 3167 3167 3167 3167 3166 3166 3168 3168 3172 3175 3177 3179 3179
3095 3095 3097 3098 3101 3105 3108 3112 3116 3122 3127 3132 3136 3141 3146 3151 3155 3159 3162 3164 3165 3165 3168 3169 3171 3171 3173 3174 3174 3173 3172 3171 3169 3167 3167 3166 3166 3166 3166 3166 3169 3171 3173 3176 3179 3179 3178
3086 3087 3088 3089 3091 3095 3099 3104 3108 3114 3120 3124 3130 3135 3140 3145 3150 3155 3158 3161 3162 3163 3166 3167 3169 3170 3171 3173 3172 3172 3171 3171 3169 3167 3166 3166 3165 3165 3166 3167 3171 3172 3173 3177 3180 3180 3181
3078 3078 3078 3079 3080 3084 3089 3094 3100 3107 3113 3119 3123 3129 3134 3140 3145 3150 3154 3158 3160 3161 3164 3165 3167 3168 3169 3171 3171 3170 3170 3170 3169 3167 3166 3165 3165 3166 3166 3167 3170 3173 3176 3177 3181 3181 3182
3071 3071 3070 3071 3071 3073 3077 3083 3089 3097 3105 3111 3116 3123 3128 3133 3140 3145 3150 3153 3156 3158 3160 3161 3165 3165 3168 3169 3169 3169 3169 3169 3168 3167 3166 3166 3166 3166 3167 3167 3170 3174 3175 3177 3179 3180 3182
3061 3062 3063 3062 3063 3065 3067 3071 3079 3087 3097 3105 3111 3115 3121 3127 3134 3140 3145 3150 3152 3155 3157 3159 3162 3167 3165 3167 3167 3167 3168 3168 3167 3166 3167 3166 3167 3166 3168 3168 3170 3171 3175 3177 3177 3182 3181
3053 3055 3056 3056 3057 3058 3060 3062 3068 3077 3088 3097 3102 3109 3116 3122 3128 3134 3141 3145 3150 3154 3152 3156 3159 3161 3162 3164 3165 3166 3166 3167 3167 3167 3167 3167 3167 3166 3168 3169 3171 3171 3173 3177 3179 3180 3181
3047 3049 3050 3052 3052 3053 3054 3056 3059 3067 3078 3089 3098 3102 3109 3116 3122 3127 3133 3137 3143 3149 3151 3153 3154 3158 3160 3163 3164 3164 3165 3167 3167 3167 3167 3168 3167 3167 3168 3170 3171 3170 3173 3177 3179 3180 3182
3040 3043 3044 3046 3048 3049 3050 3051 3052 3057 3068 3079 3087 3095 3098 3109 3115 3120 3127 3135 3141 3146 3149 3149 3152 3155 3158 3160 3161 3162 3163 3165 3166 3167 3167 3167 3168 3168 3168 3170 3170 3172 3175 3176 3178 3179 3181
3034 3036 3039 3041 3043 3044 3046 3047 3048 3050 3059 3070 3079 3087 3094 3102 3108 3115 3121 3131 3138 3143 3146 3146 3147 3150 3154 3157 3158 3159 3161 3164 3165 3166 3167 3168 3168 3168 3169 3171 3172 3173 3176 3177 3177 3180 3180
3027 3029 3032 3035 3038 3040 3041 3042 3044 3045 3050 3062 3071 3079 3088 3093 3098 3107 3125 3129 3135 3142 3144 3142 3139 3142 3149 3153 3155 3157 3158 3160 3162 3164 3167 3167 3166 3168 3170 3171 3173 3175 3177 3179 3180 3180 3180
3020 3022 3026 3029 3032 3034 3036 3038 3040 3041 3044 3052 3060 3067 3077 3082 3089 3111 3121 3127 3134 3140 3131 3128 3130 3134 3141 3145 3148 3151 3155 3158 3161 3162 3163 3164 3165 3166 3168 3171 3172 3175 3177 3179 3180 3180 3179
3012 3015 3019 3023 3026 3029 3032 3034 3035 3037 3041 3045 3053 3060 3068 3071 3083 3102 3113 3121 3129 3123 3123 3122 3125 3129 3135 3139 3143 3146 3150 3153 3157 3159 3161 3162 3164 3165 3166 3169 3171 3173 3176 3178 3182 3181 3179
3005 3008 3013 3017 3021 3024 3027 3030 3031 3034 3036 3038 3045 3054 3060 3072 3077 3093 3106 3116 3114 3108 3115 3116 3121 3126 3128 3135 3140 3143 3147 3149 3153 3155 3156 3160 3164 3164 3165 3167 3169 3172 3174 3175 3186 3183 3176
2999 3002 3007 3011 3015 3018 3022 3025 3027 3029 3031 3033 3039 3050 3056 3069 3073 3084 3096 3100 3092 3100 3109 3111 3117 3123 3123 3131 3135 3140 3143 3147 3149 3152 3155 3155 3159 3162 3164 3166 3169 3171 3173 3174 3176 3178 3178
2992 2996 3001 3004 3008 3012 3016 3020 3023 3025 3027 3030 3035 3045 3053 3062 3069 3078 3084 3083 3091 3099 3104 3109 3111 3117 3116 3124 3130 3135 3140 3143 3145 3149 3151 3152 3156 3161 3163 3165 3167 3168 3171 3173 3175 3181 3184
2984 2988 2993 2997 3002 3006 3010 3015 3019 3022 3024 3027 3032 3041 3050 3053 3063 3067 3069 3078 3088 3097 3101 3106 3107 3111 3114 3119 3127 3130 3137 3139 3141 3144 3147 3151 3154 3160 3162 3161 3163 3166 3166 3169 3172 3172 3171
2976 2981 2986 2990 2995 2999 3004 3009 3013 3018 3020 3023 3025 3036 3044 3051 3056 3064 3066 3075 3088 3096 3100 3104 3107 3112 3115 3118 3124 3129 3133 3136 3138 3143 3146 3150 3152 3155 3158 3158 3160 3162 3163 3166 3168 3168 3166
2968 2972 2977 2982 2987 2993 2998 3003 3008 3013 3015 3019 3022 3032 3039 3047 3050 3057 3068 3076 3088 3094 3097 3102 3106 3111 3115 3118 3124 3128 3132 3136 3138 3140 3144 3148 3150 3152 3156 3159 3156 3156 3157 3160 3163 3164 3162
2958 2963 2968 2974 2979 2985 2991 2996 3002 3007 3011 3014 3018 3027 3037 3042 3048 3058 3065 3070 3080 3090 3095 3102 3104 3109 3113 3116 3121 3124 3129 3132 3136 3139 3141 3144 3145 3145 3148 3147 3148 3149 3151 3155 3158 3158 3155
2945 2951 2956 2963 2969 2976 2982 2989 2995 3001 3006 3010 3013 3020 3029 3037 3048 3052 3060 3067 3079 3086 3093 3099 3103 3106 3110 3116 3119 3121 3125 3129 3132 3135 3137 3141 3142 3143 3145 3147 3147 3148 3149 3149 3149 3151 3151
2932 2937 2943 2950 2958 2965 2973 2980 2987 2994 3000 3003 3008 3016 3026 3033 3041 3047 3053 3061 3070 3085 3091 3094 3100 3106 3109 3113 3116 3116 3121 3125 3128 3130 3133 3137 3140 3141 3143 3145 3146 3147 3147 3146 3146 3146 3145
2919 2924 2930 2936 2945 2954 2963 2972 2979 2986 2991 2991 3000 3010 3022 3029 3034 3043 3050 3058 3064 3081 3088 3093 3100 3106 3109 3113 3117 3119 3122 3126 3127 3128 3130 3135 3138 3140 3142 3144 3145 3143 3137 3138 3139 3140 3142
2905 2911 2917 2924 2933 2942 2952 2962 2970 2978 2982 2988 2999 3011 3017 3025 3034 3037 3047 3056 3063 3074 3087 3093 3099 3105 3107 3110 3115 3118 3120 3123 3125 3127 3129 3132 3136 3140 3140 3142 3145 3132 3131 3133 3134 3135 3136
2894 2900 2907 2914 2922 2932 2942 2952 2962 2971 2978 2985 2996 3007 3014 3023 3028 3034 3043 3054 3065 3073 3083 3092 3098 3102 3104 3109 3113 3116 3119 3122 3123 3125 3127 3131 3134 3136 3136 3135 3131 3128 3128 3130 3131 3133 3132
2887 2892 2898 2905 2913 2923 2933 2944 2954 2964 2973 2981 2992 3003 3009 3018 3021 3032 3042 3049 3056 3067 3078 3088 3096 3098 3103 3105 3110 3112 3114 3118 3120 3121 3124 3128 3130 3132 3132 3132 3127 3123 3124 3127 3129 3127 3128
2881 2887 2893 2899 2906 2915 2926 2936 2947 2958 2968 2976 2987 2997 3005 3009 3020 3030 3034 3044 3055 3063 3074 3082 3087 3091 3098 3101 3106 3109 3112 3114 3115 3116 3118 3122 3125 3126 3129 3127 3119 3120 3123 3126 3129 3130 3126
2873 2880 2886 2893 2901 2909 2919 2929 2940 2951 2962 2970 2982 2992 2999 3004 3016 3025 3035 3040 3046 3059 3061 3076 3085 3086 3092 3099 3103 3105 3108 3110 3112 3112 3112 3114 3119 3120 3126 3125 3117 3115 3118 3121 3123 3123 3124
2863 2871 2878 2886 2895 2903 2913 2923 2934 2946 2957 2966 2978 2987 2993 3001 3013 3017 3025 3032 3046 3053 3066 3068 3076 3079 3088 3095 3099 3102 3104 3105 3106 3107 3108 3112 3110 3110 3113 3110 3111 3112 3114 3116 3119 3120 3121